CW3699 Weather Reports


Display with metric or nautical units.
time (UTC)temp
F
wind
direction
speed
MPH
gust
MPH
rain 1hr
in
rain 24hr
in
rain mn
in
humidity
%
barometer
mb
20260904145414 66 206 1.0 3.0 0.00 0.03 0.03 97 1017.1
20260904144916 66 76 1.0 2.0 0.00 0.03 0.03 97 1017.2
20260904144427 65 89 1.0 2.0 0.00 0.03 0.03 96 1017.2
20260904143928 65 41 1.0 2.0 0.00 0.03 0.03 97 1017.1
20260904143415 65 141 1.0 2.0 0.00 0.03 0.03 97 1017.1
20260904142915 66 126 1.0 2.0 0.00 0.03 0.03 97 1017.0
20260904142414 66 78 0.0 3.0 0.00 0.03 0.03 97 1016.8
20260904141914 66 109 1.0 2.0 0.00 0.03 0.03 97 1016.8
20260904140914 65 98 1.0 2.0 0.00 0.03 0.03 97 1016.9
20260904140415 65 143 1.0 2.0 0.00 0.03 0.03 98 1016.8
20260904135914 65 16 1.0 3.0 0.00 0.03 0.03 98 1016.6
20260904135428 65 107 1.0 2.0 0.00 0.03 0.03 98 1016.8
20260904134928 65 20 1.0 2.0 0.00 0.03 0.03 98 1016.7
20260904134414 64 108 1.0 2.0 0.00 0.03 0.03 97 1016.7
20260904133913 64 106 1.0 3.0 0.00 0.03 0.03 98 1016.6
20260904133428 64 131 1.0 2.0 0.00 0.03 0.03 98 1016.5
20260904131914 64 113 1.0 2.0 0.00 0.03 0.03 97 1016.1
20260904131417 64 142 1.0 3.0 0.00 0.03 0.03 97 1016.1
20260904130913 63 113 1.0 2.0 0.00 0.03 0.03 97 1016.1
20260904130414 63 201 1.0 2.0 0.00 0.03 0.03 97 1015.9
20260904125428 63 160 1.0 2.0 0.00 0.03 0.03 97 1016.0
20260904124914 63 149 1.0 2.0 0.00 0.03 0.03 97 1016.3
20260904124416 63 175 1.0 2.0 0.00 0.03 0.03 97 1016.3
20260904123928 62 168 1.0 2.0 0.00 0.03 0.03 97 1016.3
20260904122913 62 132 0.0 2.0 0.01 0.03 0.03 97 1016.6
20260904122413 62 106 0.0 1.0 0.01 0.03 0.03 97 1016.5
20260904121914 62 72 0.0 1.0 0.01 0.03 0.03 97 1016.2
20260904121428 62 142 0.0 1.0 0.02 0.03 0.03 97 1015.8
20260904120914 62 125 0.0 2.0 0.03 0.03 0.03 97 1015.8
20260904120413 62 95 0.0 2.0 0.03 0.03 0.03 97 1015.8
20260904115914 61 137 0.0 2.0 0.03 0.03 0.03 97 1015.8
20260904115413 61 109 0.0 1.0 0.03 0.03 0.03 97 1016.0
20260904114914 61 142 0.0 2.0 0.03 0.03 0.03 97 1015.8
20260904114413 61 144 0.0 2.0 0.03 0.03 0.03 97 1016.1
20260904113414 61 149 0.0 2.0 0.02 0.02 0.02 96 1015.8
20260904112417 60 134 1.0 1.0 0.02 0.02 0.02 96 1016.7
20260904111914 60 146 0.0 1.0 0.02 0.02 0.02 96 1016.7
20260904111413 60 159 0.0 2.0 0.01 0.01 0.01 96 1016.7
20260904110914 60 149 0.0 1.0 0.00 0.00 0.00 96 1016.7
20260904105917 60 136 0.0 2.0 0.00 0.00 0.00 96 1016.9
20260904105415 60 157 0.0 1.0 0.00 0.00 0.00 96 1016.9
20260904104414 60 125 0.0 1.0 0.00 0.00 0.00 96 1016.8
20260904103414 60 152 0.0 1.0 0.00 0.00 0.00 96 1016.5
20260904102916 60 131 0.0 1.0 0.00 0.00 0.00 96 1016.4
20260904101914 60 132 0.0 1.0 0.00 0.00 0.00 96 1016.3
20260904101414 60 178 0.0 1.0 0.00 0.00 0.00 96 1016.2
20260904095914 60 148 0.0 1.0 0.00 0.00 0.00 96 1016.0
20260904095413 60 182 0.0 1.0 0.00 0.00 0.00 96 1016.0
20260904094913 60 139 0.0 1.0 0.00 0.00 0.00 96 1016.0
20260904094414 60 138 0.0 1.0 0.00 0.00 0.00 96 1015.9
20260904093913 60 147 0.0 1.0 0.00 0.00 0.00 96 1016.0
20260904093413 61 160 0.0 1.0 0.00 0.00 0.00 96 1015.9
20260904092413 61 140 0.0 1.0 0.00 0.00 0.00 96 1015.7
20260904091915 61 118 0.0 1.0 0.00 0.00 0.00 97 1015.6
20260904091429 60 140 0.0 1.0 0.00 0.00 0.00 96 1015.4
20260904090914 61 132 0.0 2.0 0.00 0.00 0.00 96 1015.5
20260904090414 61 137 0.0 2.0 0.00 0.00 0.00 97 1015.7
20260904085913 61 153 0.0 1.0 0.00 0.00 0.00 97 1015.6
20260904085413 60 127 0.0 1.0 0.00 0.00 0.00 97 1015.4
20260904084414 60 126 0.0 1.0 0.00 0.00 0.00 96 1015.3
20260904083913 60 121 0.0 1.0 0.00 0.00 0.00 96 1015.5
20260904083414 60 112 0.0 1.0 0.00 0.00 0.00 96 1015.7
20260904082913 60 151 0.0 1.0 0.00 0.00 0.00 96 1015.7
20260904081929 60 138 0.0 2.0 0.00 0.00 0.00 96 1015.7
20260904081413 59 129 0.0 1.0 0.00 0.00 0.00 96 1015.6
20260904080914 59 94 0.0 0.0 0.00 0.00 0.00 96 1015.6
20260904080414 59 90 0.0 1.0 0.00 0.00 0.00 96 1015.6
20260904074914 59 146 0.0 1.0 0.00 0.00 0.00 95 1015.5
20260904073913 59 141 0.0 1.0 0.00 0.00 0.00 96 1015.8
20260904073414 59 126 0.0 1.0 0.00 0.00 0.00 96 1015.9
20260904072915 59 142 0.0 1.0 0.00 0.00 0.00 96 1015.6
20260904072413 59 92 0.0 2.0 0.00 0.00 0.00 96 1015.5
20260904071913 59 167 0.0 2.0 0.00 0.00 0.00 95 1015.4
20260904071414 59 89 0.0 1.0 0.00 0.00 0.00 95 1015.4
20260904070914 58 134 0.0 1.0 0.00 0.00 0.00 95 1015.5
20260904065928 58 140 0.0 1.0 0.00 0.00 0.00 94 1015.6
20260904065414 58 120 0.0 1.0 0.00 0.00 0.00 94 1015.7
20260904063915 58 150 0.0 1.0 0.00 0.00 0.00 93 1015.8
20260904062912 59 144 0.0 1.0 0.00 0.00 0.00 93 1016.2
20260904061413 59 138 0.0 1.0 0.00 0.00 0.00 93 1016.4
20260904060914 59 146 0.0 1.0 0.00 0.00 0.00 93 1016.4
20260904060414 59 161 0.0 1.0 0.00 0.00 0.00 93 1016.4
20260904055414 59 163 0.0 1.0 0.00 0.00 0.00 93 1016.3
20260904054914 59 176 1.0 2.0 0.00 0.00 0.00 92 1016.3
20260904054414 59 153 0.0 2.0 0.00 0.00 0.00 92 1016.4
20260904053914 59 150 1.0 2.0 0.00 0.00 0.00 92 1016.4
20260904053413 59 156 0.0 1.0 0.00 0.00 0.00 92 1016.5
20260904052414 59 148 0.0 1.0 0.00 0.00 0.00 91 1016.6
20260904051915 59 163 0.0 1.0 0.00 0.00 0.00 91 1016.4
20260904051416 59 159 0.0 1.0 0.00 0.00 0.00 91 1016.5
20260904050914 59 162 0.0 2.0 0.00 0.00 0.00 91 1016.5
20260904050427 59 164 0.0 1.0 0.00 0.00 0.00 91 1016.6
20260904045414 60 166 0.0 1.0 0.00 0.00 0.00 91 1016.5
20260904044413 60 158 0.0 1.0 0.00 0.00 0.00 90 1016.4
20260904043913 60 164 0.0 1.0 0.00 0.00 0.00 90 1016.5
20260904043431 60 176 0.0 1.0 0.00 0.00 0.00 90 1016.5
20260904042914 60 170 0.0 1.0 0.00 0.00 0.00 90 1016.5
20260904042413 60 181 0.0 2.0 0.00 0.00 0.00 90 1016.6
20260904041927 60 166 0.0 1.0 0.00 0.00 0.00 90 1016.6
20260904041413 60 176 0.0 1.0 0.00 0.00 0.00 90 1016.5
20260904040912 60 181 0.0 1.0 0.00 0.00 0.00 89 1016.5
20260904035913 60 165 0.0 1.0 0.00 0.00 0.00 89 1016.4
20260904035413 60 172 0.0 2.0 0.00 0.00 0.00 89 1016.4
20260904034913 61 172 0.0 1.0 0.00 0.00 0.00 89 1016.4
20260904034414 61 178 1.0 2.0 0.00 0.00 0.00 88 1016.3
20260904033913 61 178 0.0 1.0 0.00 0.00 0.00 88 1016.2
20260904033416 61 170 1.0 2.0 0.00 0.00 0.00 88 1016.2
20260904032913 61 167 0.0 1.0 0.00 0.00 0.00 88 1016.2
20260904032415 61 168 0.0 1.0 0.00 0.00 0.00 88 1016.1
20260904031914 61 180 0.0 1.0 0.00 0.00 0.00 88 1016.0
20260904031413 62 162 0.0 2.0 0.00 0.00 0.00 88 1016.0
20260904030916 62 139 0.0 1.0 0.00 0.00 0.00 87 1016.1
20260904030414 62 161 0.0 1.0 0.00 0.00 0.00 88 1016.1
20260904025915 62 133 1.0 2.0 0.00 0.00 0.00 88 1016.1
20260904025413 62 155 0.0 2.0 0.00 0.00 0.00 87 1016.1
20260904024917 62 148 0.0 1.0 0.00 0.00 0.00 87 1016.0
20260904024413 62 139 0.0 1.0 0.00 0.00 0.00 87 1016.0
20260904023914 63 159 1.0 2.0 0.00 0.00 0.00 87 1016.2
20260904022922 63 136 1.0 1.0 0.00 0.00 0.00 87 1016.0
20260904022415 63 52 0.0 1.0 0.00 0.00 0.00 87 1016.0
20260904021429 63 151 1.0 2.0 0.00 0.00 0.00 86 1016.0
20260904020916 63 155 1.0 2.0 0.00 0.00 0.00 86 1015.9
20260904020413 63 151 1.0 1.0 0.00 0.00 0.00 86 1015.8
20260904015916 63 160 0.0 1.0 0.00 0.00 0.00 86 1015.8
20260904015417 63 145 0.0 1.0 0.00 0.00 0.00 86 1015.8
20260904014913 63 156 0.0 1.0 0.00 0.00 0.00 86 1015.7
20260904013913 64 156 0.0 1.0 0.00 0.00 0.00 85 1015.6
20260904013430 64 144 0.0 1.0 0.00 0.00 0.00 85 1015.7
20260904012913 64 152 0.0 2.0 0.00 0.00 0.00 85 1015.6
20260904012416 64 157 0.0 2.0 0.00 0.00 0.00 85 1015.5
20260904011413 64 126 0.0 1.0 0.00 0.00 0.00 84 1015.4
20260904010915 64 165 0.0 1.0 0.00 0.00 0.00 84 1015.3
20260904010413 65 154 0.0 1.0 0.00 0.00 0.00 84 1015.3
20260904005913 65 150 0.0 1.0 0.00 0.00 0.00 84 1015.2
20260904005413 65 155 0.0 1.0 0.00 0.00 0.00 84 1015.2
20260904004913 65 151 0.0 1.0 0.00 0.00 0.00 84 1015.2
20260904003913 66 134 0.0 1.0 0.00 0.00 0.00 84 1015.1
20260904003414 66 155 0.0 1.0 0.00 0.00 0.00 84 1015.1
20260904002913 66 159 0.0 1.0 0.00 0.00 0.00 84 1015.0
20260904001928 67 135 0.0 1.0 0.00 0.00 0.00 84 1015.0
20260904001413 67 149 0.0 1.0 0.00 0.00 0.00 84 1015.0
20260904000913 68 141 0.0 2.0 0.00 0.00 0.00 83 1015.0
20260904000413 68 134 0.0 1.0 0.00 0.00 0.00 83 1014.9
20260903235914 68 121 0.0 2.0 0.00 0.00 0.00 82 1014.9
20260903235416 68 168 0.0 1.0 0.00 0.00 0.00 82 1014.8
20260903234929 68 168 0.0 2.0 0.00 0.00 0.00 81 1014.7
20260903234413 69 147 0.0 2.0 0.00 0.00 0.00 82 1014.7
20260903233927 69 152 0.0 2.0 0.00 0.00 0.00 82 1014.7
20260903233413 69 157 0.0 1.0 0.00 0.00 0.00 82 1014.5
20260903232913 69 123 0.0 1.0 0.00 0.00 0.00 80 1014.5
20260903231913 70 135 0.0 2.0 0.00 0.00 0.00 81 1014.4
20260903231415 70 122 0.0 2.0 0.00 0.00 0.00 81 1014.4
20260903230914 70 83 0.0 1.0 0.00 0.00 0.00 82 1014.3
20260903230425 71 125 0.0 2.0 0.00 0.00 0.00 83 1014.3
20260903225413 71 108 0.0 2.0 0.00 0.00 0.00 83 1014.0
20260903224913 71 53 0.0 2.0 0.00 0.00 0.00 80 1014.0
20260903224417 71 69 0.0 2.0 0.00 0.00 0.00 77 1013.9
20260903223412 71 113 0.0 1.0 0.00 0.00 0.00 78 1013.9
20260903222914 72 74 0.0 2.0 0.00 0.00 0.00 75 1013.8
20260903221928 72 18 1.0 2.0 0.00 0.00 0.00 70 1013.8
20260903221414 72 50 1.0 2.0 0.00 0.00 0.00 71 1013.7
20260903220913 72 82 0.0 2.0 0.00 0.00 0.00 70 1013.7
20260903215414 73 44 0.0 2.0 0.00 0.00 0.00 73 1013.8
20260903214913 73 116 1.0 2.0 0.00 0.00 0.00 68 1013.9
20260903214413 73 69 0.0 2.0 0.00 0.00 0.00 68 1014.0
20260903213912 73 29 0.0 1.0 0.00 0.00 0.00 65 1014.0
20260903213413 74 50 0.0 1.0 0.00 0.00 0.00 69 1014.2
20260903212913 74 86 0.0 2.0 0.00 0.00 0.00 69 1014.1
20260903212414 74 27 0.0 1.0 0.00 0.00 0.00 66 1014.3
20260903211914 74 27 0.0 2.0 0.00 0.00 0.00 66 1014.3
20260903210913 74 253 0.0 2.0 0.00 0.00 0.00 68 1014.4
20260903210413 75 27 0.0 2.0 0.00 0.00 0.00 71 1014.5
20260903205913 75 71 0.0 2.0 0.00 0.00 0.00 69 1014.6
20260903205413 75 19 0.0 2.0 0.00 0.00 0.00 71 1014.6
20260903204913 75 173 0.0 2.0 0.00 0.00 0.00 67 1014.6
20260903203913 75 305 0.0 1.0 0.00 0.00 0.00 59 1014.6
20260903203412 75 16 0.0 1.0 0.00 0.00 0.00 60 1014.7
20260903202913 75 47 0.0 2.0 0.00 0.00 0.00 60 1014.8
20260903202413 74 196 0.0 1.0 0.00 0.00 0.00 60 1015.0
20260903201413 74 121 0.0 1.0 0.00 0.00 0.00 63 1015.1
20260903200413 74 60 0.0 1.0 0.00 0.00 0.00 64 1015.2
20260903195912 73 215 0.0 2.0 0.00 0.00 0.00 63 1015.4
20260903195413 73 33 0.0 1.0 0.00 0.00 0.00 66 1015.5
20260903194913 73 154 0.0 1.0 0.00 0.00 0.00 71 1015.5
20260903194413 73 119 0.0 2.0 0.00 0.00 0.00 72 1015.5
20260903193913 73 30 0.0 1.0 0.00 0.00 0.00 70 1015.8
20260903193413 73 43 0.0 1.0 0.00 0.00 0.00 71 1015.9
20260903192913 73 7 0.0 2.0 0.00 0.00 0.00 67 1015.9
20260903192413 73 6 0.0 1.0 0.00 0.00 0.00 71 1015.9
20260903191913 73 58 0.0 1.0 0.00 0.00 0.00 74 1016.0
20260903191413 73 335 0.0 1.0 0.00 0.00 0.00 80 1016.2
20260903190913 73 12 0.0 1.0 0.00 0.00 0.00 80 1016.2
20260903190413 73 73 0.0 2.0 0.00 0.00 0.00 78 1016.3
20260903185413 73 56 0.0 1.0 0.00 0.00 0.00 73 1016.5
20260903184413 73 36 0.0 2.0 0.00 0.00 0.00 76 1016.5
20260903183913 73 30 0.0 2.0 0.00 0.00 0.00 77 1016.3
20260903183413 73 9 0.0 2.0 0.00 0.00 0.00 76 1016.3
20260903182912 73 4 1.0 2.0 0.00 0.00 0.00 77 1016.4
20260903182413 73 54 0.0 2.0 0.00 0.00 0.00 77 1016.2
20260903181912 72 340 0.0 2.0 0.00 0.00 0.00 77 1016.0
20260903181412 72 32 0.0 1.0 0.00 0.00 0.00 76 1016.1
20260903180913 72 66 0.0 2.0 0.00 0.00 0.00 76 1016.1
20260903180413 72 66 0.0 1.0 0.00 0.00 0.00 75 1016.0
20260903175913 72 79 0.0 2.0 0.00 0.00 0.00 73 1016.1
20260903175413 72 82 0.0 1.0 0.00 0.00 0.00 72 1016.1
20260903174913 72 39 0.0 1.0 0.00 0.00 0.00 72 1015.9
20260903174413 72 51 0.0 1.0 0.00 0.00 0.00 70 1015.8
20260903173913 72 29 0.0 1.0 0.00 0.00 0.00 72 1015.7
20260903173413 72 62 0.0 1.0 0.00 0.00 0.00 69 1015.7
20260903172913 72 83 0.0 1.0 0.00 0.00 0.00 70 1015.7
20260903172412 72 51 0.0 1.0 0.00 0.00 0.00 69 1015.6
20260903171913 72 57 0.0 2.0 0.00 0.00 0.00 69 1015.5
20260903170413 72 115 0.0 1.0 0.00 0.00 0.00 71 1015.2
20260903165912 73 55 0.0 2.0 0.00 0.00 0.00 70 1015.2
20260903165413 72 26 0.0 2.0 0.00 0.00 0.00 69 1015.2
20260903164912 72 22 0.0 2.0 0.00 0.00 0.00 73 1015.2
20260903164413 72 355 0.0 2.0 0.00 0.00 0.00 71 1015.3
20260903163913 71 331 0.0 2.0 0.00 0.00 0.00 73 1015.3
20260903163412 71 44 0.0 2.0 0.00 0.00 0.00 73 1015.3
20260903162913 71 32 0.0 1.0 0.00 0.00 0.00 74 1015.4
20260903162412 70 34 0.0 2.0 0.00 0.00 0.00 73 1015.4
20260903161912 70 77 0.0 2.0 0.00 0.00 0.00 75 1015.4
20260903161413 70 35 1.0 2.0 0.00 0.00 0.00 75 1015.5
20260903160912 69 89 0.0 1.0 0.00 0.00 0.00 75 1015.4
20260903160412 69 110 0.0 1.0 0.00 0.00 0.00 76 1015.6
20260903155913 69 95 0.0 1.0 0.00 0.00 0.00 77 1015.6
20260903155412 69 78 0.0 2.0 0.00 0.00 0.00 76 1015.6
20260903154912 69 32 0.0 1.0 0.00 0.00 0.00 75 1015.7
20260903154413 69 83 0.0 1.0 0.00 0.00 0.00 76 1015.6
20260903153412 69 37 0.0 1.0 0.00 0.00 0.00 75 1015.8
20260903152913 69 65 0.0 2.0 0.00 0.00 0.00 75 1015.6
20260903152412 69 49 0.0 1.0 0.00 0.00 0.00 75 1015.7
20260903151914 68 51 0.0 1.0 0.00 0.00 0.00 76 1015.8
20260903150913 67 96 0.0 1.0 0.00 0.00 0.00 79 1015.7